sat.trackr.live / text

‹ back to catalog

STARLINK-32262

NORAD 60938 · 2024-155Q

PAYLOAD ACTIVE UNKNOWN

§ Identity

Operator
Country
US
Launch date
2024-08-31
Launch site
AFWTR
Launch vehicle
Mass (kg)
RCS (m²)

Purposes: comms

External: N2YO · Heavens-Above · Gunter

§ Orbital elements

Epoch: 2026-07-14T11:48:23.576256Z

Period
88.32 min
Inclination
53.1183°
Eccentricity
0.0007442
Mean motion
16.30470952 rev/d
Perigee alt
186.4 km
Apogee alt
196.2 km
Semi-major
6,569.4 km
B*
2.7501e-3
RAAN
199.7913°
Arg perigee
175.8334°
Mean anomaly
184.2773°
Rev number
10,664

§ Raw data

STARLINK-322621 60938U 24155Q   26195.49193954  .13568272  11970-4  27501-2 0  99932 60938  53.1183 199.7913 0007442 175.8334 184.2773 16.30470952106642

JSON: /api/v1/satellites/60938 · /tle

For live sub-satellite position, see the globe view (requires WebGL).

§ Visibility from observer

Set your observer location to see the next 7 days of passes ≥ 10°. The values pass through the URL so the page stays shareable.

No JS? Fill the form by hand. The geolocation button needs JavaScript.